This demonstration page uses our WeatherBlox Daily Observations layout. Learn more.

Left ArrowRight Arrow

Hourly Observations for March 13, 2020

Temp ( °F °C ) Dew Point ( °F °C ) Humidity (%) Winds ( mph kmh ) Pressure ( in mb ) Visibility ( mi km ) Precip ( " mm )
12:49 am 00:49 Mostly Cloudy 21 -6 18 -8 86 86 N N/A 30.37 1028 10 16 N/A
12:53 am 00:53 Mostly Cloudy 22 -5.6 19 -7.2 89 89 N N/A 30.29 1026 10 16 N/A
1:26 am 01:26 Partly Cloudy 20 -6.7 17 -8.3 89 89 N 3 6 30.36 1028 10 16 N/A
1:43 am 01:43 Mostly Cloudy 20 -6.7 18 -7.8 92 92 NW 5 7 30.36 1028 10 16 N/A
1:53 am 01:53 Mostly Cloudy 21 -6.1 18 -7.8 88 88 NNW 3 6 30.29 1026 10 16 N/A
2:39 am 02:39 Cloudy 22 -5.6 20 -6.7 92 92 SE 3 6 30.36 1028 10 16 N/A
2:53 am 02:53 Mostly Cloudy 23 -5 20 -6.7 88 88 ESE 5 7 30.30 1026 10 16 N/A
3:39 am 03:39 Mostly Cloudy 24 -4.4 20 -6.7 84 84 E 8 13 30.36 1028 10 16 N/A
3:53 am 03:53 Cloudy 24 -4.4 21 -6.1 88 88 E 10 17 30.30 1026 10 16 N/A
4:38 am 04:38 Cloudy 24 -4.4 20 -6.7 84 84 ENE 10 17 30.36 1028 10 16 N/A
4:53 am 04:53 Cloudy 24 -4.4 20 -6.7 84 84 E 12 19 30.30 1026 10 16 N/A
5:25 am 05:25 Cloudy 22 -5.6 17 -8.3 82 82 ENE 17 28 30.37 1029 10 16 N/A
5:53 am 05:53 Cloudy 21 -6.1 16 -8.9 81 81 ENE 15 24 30.32 1027 10 16 N/A
6:53 am 06:53 Cloudy 20 -6.7 15 -9.4 81 81 ENE 15 24 30.34 1027 10 16 N/A
7:53 am 07:53 Cloudy 21 -6.1 15 -9.4 78 78 E 17 28 30.35 1028 10 16 N/A
8:53 am 08:53 Cloudy 21 -6.1 16 -8.9 81 81 ENE 17 28 30.36 1028 10 16 N/A
9:17 am 09:17 Cloudy 19 -7 16 -9 86 86 ENE 23 37 30.43 1030 10 16 N/A
9:53 am 09:53 Cloudy 20 -6.7 13 -10.6 74 74 E 21 33 30.37 1028 10 16 N/A
10:53 am 10:53 Cloudy 20 -6.7 13 -10.6 74 74 E 24 39 30.36 1028 10 16 N/A
11:53 am 11:53 Cloudy 20 -6.7 12 -11.1 71 71 E 22 35 30.37 1028 10 16 N/A
12:53 pm 12:53 Cloudy 22 -5.6 11 -11.7 63 63 ENE 23 37 30.36 1028 10 16 N/A
1:27 pm 13:27 Cloudy 23 -5 11 -11.7 60 60 E 22 35 30.40 1029 10 16 N/A
1:53 pm 13:53 Cloudy 23 -5 11 -11.7 60 60 E 24 39 30.34 1028 10 16 N/A
2:53 pm 14:53 Mostly Cloudy 25 -3.9 11 -11.7 55 55 E 25 41 30.31 1027 10 16 N/A
3:53 pm 15:53 Cloudy 24 -4.4 11 -11.7 57 57 E 26 43 30.29 1026 10 16 N/A
4:53 pm 16:53 Cloudy 23 -5 11 -11.7 60 60 E 28 44 30.28 1026 10 16 N/A
5:53 pm 17:53 Cloudy 22 -5.6 10 -12.2 60 60 E 28 44 30.27 1025 10 16 N/A
6:53 pm 18:53 Cloudy 21 -6.1 11 -11.7 65 65 E 29 46 30.29 1026 10 16 N/A
7:01 pm 19:01 Cloudy 20 -6.7 12 -11.1 71 71 E 32 52 30.34 1028 9 14 N/A
7:53 pm 19:53 Windy with Snow Likely 19 -7.2 13 -10.6 77 77 E 30 48 30.29 1026 3 5 0.00 0.00
8:53 pm 20:53 Windy with Snow Likely 19 -7.2 13 -10.6 77 77 E 26 43 30.29 1026 4 6 0.00 0.00
9:53 pm 21:53 Windy with Snow Likely 19 -7.2 12 -11.1 74 74 E 31 50 30.28 1026 5 8 0.00 0.00
10:08 pm 22:08 Windy with Snow Likely 19 -7.2 12 -11.1 74 74 E 32 52 30.34 1027 3 4 0.00 0.00
10:17 pm 22:17 Windy with Snow Likely 19 -7.2 12 -11.1 74 74 E 31 50 30.34 1027 4 6 0.00 0.00
10:45 pm 22:45 Windy with Snow Likely 19 -7.2 12 -11.1 74 74 E 32 52 30.35 1028 5 8 0.00 0.00
10:53 pm 22:53 Windy with Snow Likely 19 -7.2 13 -10.6 77 77 E 29 46 30.29 1026 3 5 0.00 0.00
11:07 pm 23:07 Windy with Snow Likely 19 -7 14 -10 79 79 E 25 41 30.35 1028 3 4 N/A
11:51 pm 23:51 Windy with Snow Likely 19 -7 14 -10 79 79 E 29 46 30.35 1028 2 2 0.00 0.00
11:53 pm 23:53 Windy with Snow Likely 19 -7.2 14 -10 81 81 E 23 37 30.29 1026 2 2 0.00 0.00

Powered by AerisWeather